FW4267 Weather Reports


Display with metric or nautical units.
time (UTC)temp
F
wind
direction
speed
MPH
gust
MPH
rain 1hr
in
rain 24hr
in
rain mn
in
humidity
%
barometer
mb
20260505175807 54 94 0.0 0.0 0.00 0.39 0.31 95 1011.2
20260505175305 54 94 0.0 0.0 0.00 0.40 0.31 95 1011.2
20260505174807 55 94 0.0 1.0 0.00 0.42 0.31 95 1011.2
20260505174304 55 94 0.0 1.0 0.00 0.43 0.31 95 1011.2
20260505174120 55 116 0.0 1.0 0.00 0.46 0.31 96 1011.2
20260505173304 55 116 0.0 1.0 0.00 0.47 0.31 96 1011.3
20260505172803 55 116 0.0 1.0 0.00 0.49 0.31 96 1011.3
20260505172306 55 116 0.0 1.0 0.01 0.50 0.31 96 1011.2
20260505171804 55 116 0.0 1.0 0.02 0.52 0.31 96 1011.3
20260505171305 55 104 0.0 1.0 0.02 0.55 0.31 96 1011.4
20260505170804 54 104 0.0 1.0 0.02 0.62 0.31 96 1011.5
20260505170304 54 104 0.0 1.0 0.03 0.69 0.31 96 1011.5
20260505165804 54 104 0.0 1.0 0.03 0.80 0.31 95 1011.5
20260505165455 54 110 0.0 0.0 0.04 0.85 0.31 95 1011.5
20260505165417 54 104 0.0 1.0 0.04 0.84 0.31 95 1011.4
20260505164303 53 110 0.0 1.0 0.04 0.85 0.31 95 1011.6
20260505163804 53 110 0.0 1.0 0.05 0.85 0.31 95 1011.6
20260505163303 53 80 0.0 1.0 0.06 0.85 0.31 95 1011.6
20260505162805 53 80 0.0 1.0 0.07 0.85 0.31 95 1011.8
20260505162302 53 80 0.0 1.0 0.07 0.84 0.30 95 1011.6
20260505161805 53 78 0.0 1.0 0.07 0.83 0.29 95 1011.5
20260505161302 53 78 0.0 1.0 0.08 0.83 0.29 95 1011.8
20260505161120 52 298 0.0 0.0 0.07 0.83 0.28 95 1011.8
20260505160303 52 298 0.0 0.0 0.07 0.82 0.28 95 1011.9
20260505153302 52 303 1.0 3.0 0.14 0.81 0.25 93 1011.8
20260505152802 52 289 1.0 2.0 0.16 0.80 0.24 93 1011.8
20260505152304 53 290 0.0 2.0 0.18 0.80 0.23 93 1011.9
20260505151800 53 312 0.0 1.0 0.20 0.79 0.22 93 1011.9
20260505151302 53 82 0.0 2.0 0.20 0.78 0.21 93 1012.0
20260505150802 53 83 0.0 3.0 0.20 0.78 0.21 93 1012.0
20260505150300 53 58 0.0 3.0 0.20 0.77 0.20 93 1012.0
20260505130258 64 302 2.0 5.0 0.00 1.43 0.01 62 1010.3
20260505124758 64 285 1.0 6.0 0.00 1.43 0.01 65 1010.4
20260505124258 64 329 2.0 6.0 0.00 1.43 0.01 64 1010.4
20260505123757 64 226 2.0 5.0 0.00 1.43 0.01 68 1010.5
20260505123258 64 303 1.0 4.0 0.00 1.43 0.01 64 1010.5
20260505122757 64 66 1.0 4.0 0.00 1.43 0.01 71 1010.6
20260505122256 64 298 1.0 3.0 0.00 1.43 0.01 71 1010.7
20260505121915 64 306 2.0 5.0 0.00 1.43 0.01 67 1010.8
20260505121848 63 307 0.0 5.0 0.00 1.43 0.01 71 1010.7
20260505120758 64 345 0.0 2.0 0.00 1.43 0.01 70 1010.7
20260505120256 64 93 0.0 3.0 0.00 1.43 0.01 70 1010.7
20260505115757 63 292 0.0 4.0 0.00 1.43 0.01 69 1010.8
20260505115255 62 303 1.0 5.0 0.00 1.43 0.01 77 1010.9
20260505114756 62 295 0.0 5.0 0.00 1.43 0.01 72 1010.9
20260505114257 62 282 1.0 5.0 0.00 1.43 0.01 71 1010.9
20260505114103 63 276 0.0 3.0 0.00 1.43 0.01 72 1010.9
20260505113558 63 278 0.0 3.0 0.00 1.43 0.01 69 1011.0
20260505113104 63 300 0.0 2.0 0.00 1.43 0.01 72 1011.1
20260505112257 62 309 0.0 4.0 0.00 1.43 0.01 76 1011.2
20260505111755 62 290 1.0 4.0 0.00 1.43 0.01 71 1011.1
20260505111436 61 312 2.0 5.0 0.00 1.43 0.01 74 1011.2
20260505111403 62 193 0.0 3.0 0.00 1.43 0.01 76 1011.2
20260505110254 62 289 1.0 5.0 0.00 1.43 0.01 73 1011.4
20260505101754 63 21 0.0 2.0 0.00 1.43 0.01 73 1011.8
20260505101254 63 282 0.0 2.0 0.00 1.43 0.01 75 1011.6
20260505100753 62 86 0.0 2.0 0.00 1.43 0.01 74 1011.6
20260505100254 62 275 0.0 2.0 0.00 1.43 0.01 79 1011.8
20260505095753 61 214 0.0 1.0 0.00 1.43 0.01 80 1011.8
20260505095606 60 87 0.0 1.0 0.00 1.43 0.01 82 1011.8
20260505094753 60 89 0.0 3.0 0.00 1.43 0.01 80 1011.8
20260505094255 60 116 0.0 3.0 0.00 1.43 0.01 82 1011.8
20260505093752 59 209 0.0 2.0 0.00 1.43 0.01 82 1011.8
20260505093253 59 296 0.0 2.0 0.00 1.43 0.01 85 1011.9
20260505092754 58 113 0.0 2.0 0.00 1.43 0.01 83 1011.9
20260505092557 58 216 0.0 3.0 0.00 1.43 0.01 86 1011.8
20260505092100 58 285 0.0 3.0 0.00 1.43 0.01 85 1011.9
20260505091252 58 289 0.0 1.0 0.00 1.43 0.01 86 1011.8
20260505090753 58 324 0.0 1.0 0.00 1.43 0.01 87 1011.8
20260505090251 58 316 0.0 1.0 0.00 1.43 0.01 90 1011.9
20260505085752 57 78 0.0 0.0 0.00 1.43 0.01 90 1011.9
20260505085252 57 78 0.0 2.0 0.00 1.43 0.01 89 1011.9
20260505084752 57 78 0.0 2.0 0.00 1.43 0.01 88 1011.9
20260505084252 57 18 0.0 1.0 0.00 1.43 0.01 92 1011.9
20260505083751 56 302 0.0 1.0 0.00 1.43 0.01 93 1011.9
20260505083252 56 302 0.0 1.0 0.00 1.43 0.01 93 1011.9
20260505082751 55 292 0.0 2.0 0.00 1.43 0.01 92 1011.9
20260505082557 55 290 0.0 2.0 0.00 1.43 0.01 93 1011.9
20260505081752 55 298 0.0 1.0 0.00 1.43 0.01 94 1011.9
20260505081250 55 281 0.0 1.0 0.00 1.43 0.01 95 1011.9
20260505080751 55 350 0.0 1.0 0.00 1.43 0.01 95 1011.9
20260505080250 55 350 0.0 1.0 0.00 1.43 0.01 95 1011.9
20260505075752 55 324 0.0 0.0 0.00 1.43 0.01 96 1011.8
20260505075250 55 324 0.0 2.0 0.00 1.43 0.01 96 1011.9
20260505074751 54 323 0.0 2.0 0.00 1.43 0.01 95 1011.9
20260505074249 54 94 0.0 2.0 0.00 1.43 0.01 96 1011.8
20260505073751 54 296 0.0 1.0 0.00 1.43 0.01 95 1011.9
20260505073249 55 298 0.0 1.0 0.00 1.43 0.01 96 1011.9
20260505072751 54 299 0.0 3.0 0.00 1.43 0.01 95 1012.0
20260505072251 54 303 1.0 3.0 0.00 1.43 0.01 95 1012.0
20260505071749 55 309 0.0 2.0 0.00 1.43 0.01 96 1012.0
20260505071250 55 299 0.0 2.0 0.00 1.43 0.01 97 1012.0
20260505070908 55 213 0.0 1.0 0.00 1.43 0.01 97 1012.1
20260505070840 55 272 0.0 2.0 0.00 1.43 0.01 97 1012.0
20260505065749 54 213 0.0 1.0 0.00 1.43 0.01 96 1012.0
20260505065553 54 290 0.0 1.0 0.00 1.43 0.01 97 1012.0
20260505065054 54 138 0.0 2.0 0.00 1.43 0.01 97 1012.0
20260505064247 55 138 0.0 2.0 0.00 1.43 0.01 98 1012.0
20260505063749 55 106 0.0 3.0 0.00 1.43 0.01 98 1011.9
20260505063409 53 69 0.0 0.0 0.00 1.43 0.01 98 1011.9
20260505063341 54 107 0.0 3.0 0.00 1.43 0.01 98 1011.9
20260505062247 53 69 0.0 0.0 0.00 1.43 0.01 98 1012.0
20260505061749 52 69 0.0 1.0 0.00 1.43 0.01 98 1012.0
20260505061247 50 69 0.0 1.0 0.00 1.43 0.01 98 1012.0
20260505060748 49 69 0.0 1.0 0.00 1.43 0.01 98 1012.1
20260505060248 49 247 0.0 1.0 0.00 1.43 0.01 98 1012.1
20260505055748 48 250 0.0 0.0 0.00 1.43 0.01 98 1012.0
20260505055248 48 250 0.0 0.0 0.00 1.43 0.01 98 1012.0
20260505054747 48 250 0.0 0.0 0.00 1.43 0.01 98 1011.9
20260505054248 48 250 0.0 1.0 0.00 1.43 0.01 98 1011.9
20260505054057 48 250 0.0 1.0 0.00 1.43 0.01 98 1011.9
20260505053248 47 189 0.0 0.0 0.00 1.43 0.01 98 1012.0
20260505052747 47 189 0.0 0.0 0.00 1.43 0.01 98 1011.9
20260505052246 47 189 0.0 0.0 0.00 1.43 0.01 98 1012.0
20260505052051 47 189 0.0 0.0 0.00 1.43 0.01 98 1012.0
20260505051245 47 189 0.0 0.0 0.00 1.43 0.01 98 1012.0
20260505051053 46 189 0.0 0.0 0.00 1.43 0.01 98 1012.0
20260505050247 46 189 0.0 0.0 0.00 1.43 0.01 98 1011.9
20260505050206 46 189 0.0 0.0 0.00 1.43 0.01 97 1011.8
20260505050200 46 189 0.0 0.0 0.00 1.43 0.01 97 1011.9
20260505041746 47 189 0.0 0.0 0.01 1.43 0.01 97 1011.8
20260505041246 47 189 0.0 0.0 0.01 1.43 0.01 97 1011.8
20260505040745 47 189 0.0 0.0 0.01 1.43 0.01 97 1011.9
20260505040244 47 189 0.0 0.0 0.01 1.43 0.01 97 1011.9
20260505035745 47 189 0.0 0.0 0.01 1.43 0.01 97 1012.0
20260505035245 47 189 0.0 0.0 0.01 1.43 0.01 97 1011.9
20260505034745 47 189 0.0 0.0 0.01 1.43 0.01 97 1011.9
20260505034244 47 189 0.0 0.0 0.01 1.43 0.01 97 1011.9
20260505033745 47 189 0.0 0.0 0.01 1.43 0.01 98 1011.9
20260505033245 47 189 0.0 0.0 0.01 1.43 0.01 98 1012.0
20260505033053 47 189 0.0 0.0 0.01 1.43 0.01 98 1011.8
20260505032245 47 189 0.0 0.0 0.00 1.42 0.00 97 1012.0
20260505031743 47 189 0.0 0.0 0.00 1.42 0.00 97 1011.9
20260505031244 47 189 0.0 0.0 0.00 1.42 0.00 97 1011.9
20260505030743 47 189 0.0 0.0 0.00 1.42 0.00 97 1011.9
20260505030245 47 189 0.0 0.0 0.00 1.42 0.00 97 1011.9
20260505025744 47 189 0.0 0.0 0.00 1.42 0.00 97 1011.9
20260505025244 47 189 0.0 0.0 0.00 1.42 0.00 97 1011.8
20260505024742 48 189 0.0 0.0 0.00 1.42 0.00 97 1011.9
20260505024247 48 189 0.0 0.0 0.00 1.42 0.00 97 1012.1
20260505023743 48 189 0.0 0.0 0.00 1.42 0.00 97 1012.0
20260505023242 48 189 0.0 0.0 0.00 1.42 0.00 97 1012.0
20260505022747 48 189 0.0 1.0 0.00 1.42 0.00 97 1011.9
20260505022553 48 189 0.0 1.0 0.00 1.42 0.00 97 1011.9
20260505022050 48 124 0.0 0.0 0.00 1.42 0.00 97 1011.8
20260505021547 48 124 0.0 0.0 0.00 1.42 0.00 97 1011.8
20260505020743 48 124 0.0 1.0 0.00 1.42 0.00 97 1011.9
20260505020549 49 120 0.0 1.0 0.00 1.42 0.00 97 1011.9
20260505015746 49 307 0.0 1.0 0.00 1.42 0.00 97 1011.9
20260505015242 49 307 0.0 0.0 0.00 1.42 0.00 97 1011.8
20260505014743 49 309 0.0 0.0 0.00 1.42 0.00 97 1011.9
20260505014242 49 309 0.0 0.0 0.00 1.42 0.00 97 1011.9
20260505014050 49 309 0.0 0.0 0.00 1.42 0.00 97 1012.0
20260505013243 49 309 0.0 0.0 0.00 1.42 0.00 97 1012.0
20260505012741 49 309 0.0 0.0 0.00 1.42 0.00 97 1012.1
20260505012243 49 309 0.0 0.0 0.00 1.42 0.00 97 1012.1
20260505011741 50 309 0.0 0.0 0.00 1.42 0.00 97 1012.2
20260505011241 50 309 0.0 0.0 0.00 1.42 0.00 97 1012.2
20260505010741 50 309 0.0 0.0 0.00 1.42 0.00 97 1012.2
20260505010241 50 309 0.0 0.0 0.00 1.42 0.00 97 1012.2
20260505005741 51 309 0.0 0.0 0.00 1.42 0.00 97 1012.1
20260505005239 51 309 0.0 0.0 0.00 1.42 0.00 97 1012.2
20260505004741 51 309 0.0 0.0 0.00 1.42 0.00 97 1012.3
20260505004240 51 309 0.0 1.0 0.00 1.42 0.00 97 1012.3
20260505003741 51 309 0.0 2.0 0.00 1.42 0.00 97 1012.3
20260505003549 51 292 0.0 2.0 0.00 1.42 0.00 97 1012.4
20260505003045 50 288 0.0 2.0 0.00 1.42 0.00 97 1012.4
20260505002240 50 289 0.0 2.0 0.00 1.42 0.00 97 1012.3
20260505001741 50 295 0.0 1.0 0.00 1.42 0.00 97 1012.5
20260505001337 50 286 0.0 1.0 0.00 1.42 0.00 97 1012.5
20260505000241 50 286 0.0 2.0 0.00 1.42 0.00 98 1012.5
20260504235739 49 96 0.0 1.0 0.00 1.42 0.00 97 1012.5
20260504235548 49 97 0.0 0.0 0.00 1.42 0.00 97 1012.6
20260504234739 49 97 0.0 0.0 0.00 1.42 0.00 97 1012.5
20260504234239 49 97 0.0 0.0 0.00 1.42 0.00 97 1012.4
20260504233739 49 97 0.0 0.0 0.00 1.42 0.00 96 1012.5
20260504233541 49 97 0.0 0.0 0.00 1.42 0.00 96 1012.6
20260504232740 50 97 0.0 0.0 0.00 1.42 0.00 96 1012.5
20260504232238 50 97 0.0 1.0 0.00 1.42 0.00 96 1012.6
20260504231740 50 97 0.0 1.0 0.00 1.42 0.00 96 1012.5
20260504231547 50 97 0.0 0.0 0.00 1.42 0.00 96 1012.5
20260504230739 51 97 0.0 1.0 0.00 1.42 0.00 96 1012.6
20260504230240 51 97 0.0 1.0 0.00 1.42 0.00 96 1012.6
20260504225737 51 97 0.0 1.0 0.00 1.42 0.00 96 1012.7
20260504225238 51 97 0.0 1.0 0.00 1.42 0.00 96 1012.7
20260504224738 51 100 0.0 1.0 0.00 1.42 0.00 96 1012.7
20260504224239 51 96 0.0 1.0 0.00 1.42 0.00 97 1012.8
20260504223737 51 96 0.0 1.0 0.00 1.42 0.00 97 1012.8
20260504223240 51 96 0.0 0.0 0.00 1.42 0.00 97 1012.8
20260504223046 51 96 0.0 0.0 0.00 1.42 0.00 97 1012.8
20260504222545 52 97 0.0 0.0 0.00 1.42 0.00 97 1012.8
20260504221738 52 96 0.0 1.0 0.00 1.42 0.00 97 1012.9
20260504221332 52 96 0.0 1.0 0.00 1.42 0.00 97 1013.0
20260504220545 52 102 0.0 0.0 0.00 1.42 0.00 97 1013.0
20260504215737 52 103 0.0 1.0 0.00 1.42 1.42 97 1013.0
20260504215239 52 103 0.0 1.0 0.00 1.42 1.42 97 1013.0
20260504214738 52 103 0.0 0.0 0.00 1.42 1.42 96 1013.1
20260504214237 52 103 0.0 0.0 0.00 1.42 1.42 96 1013.1
20260504213736 52 103 0.0 0.0 0.00 1.42 1.42 97 1013.1
20260504213237 52 103 0.0 0.0 0.00 1.42 1.42 97 1013.1
20260504212735 52 131 0.0 1.0 0.00 1.42 1.42 97 1013.1
20260504212251 52 131 0.0 1.0 0.00 1.42 1.42 97 1013.2
20260504211736 52 131 0.0 0.0 0.00 1.42 1.42 97 1013.2
20260504211237 52 103 0.0 1.0 0.00 1.42 1.42 97 1013.2
20260504210738 52 56 0.0 1.0 0.00 1.42 1.42 97 1013.2
20260504210236 51 56 0.0 0.0 0.00 1.42 1.42 96 1013.1
20260504210044 52 56 0.0 0.0 0.00 1.42 1.42 96 1013.1
20260504205235 52 56 0.0 0.0 0.00 1.42 1.42 96 1013.0
20260504204900 52 56 0.0 0.0 0.00 1.42 1.42 96 1012.9
20260504204831 52 56 0.0 0.0 0.00 1.42 1.42 96 1013.0
20260504203738 52 79 0.0 1.0 0.00 1.42 1.42 96 1012.9
20260504203234 52 79 0.0 1.0 0.00 1.42 1.42 96 1012.9
20260504202752 52 80 0.0 1.0 0.00 1.42 1.42 96 1012.9
20260504202559 52 79 0.0 1.0 0.00 1.42 1.42 96 1012.9
20260504201739 52 79 0.0 1.0 0.00 1.43 1.42 96 1012.9
20260504201236 52 79 0.0 1.0 0.01 1.44 1.42 96 1012.9
20260504200734 52 79 0.0 1.0 0.01 1.45 1.42 96 1013.0
20260504200236 52 79 0.0 1.0 0.02 1.46 1.42 96 1013.0
20260504195736 52 79 0.0 1.0 0.02 1.46 1.42 96 1012.9
20260504195235 52 79 0.0 0.0 0.03 1.47 1.42 96 1012.8
20260504194734 52 79 0.0 0.0 0.03 1.47 1.42 96 1012.6
20260504194236 52 79 0.0 0.0 0.04 1.47 1.42 96 1012.7
20260504193736 52 259 0.0 1.0 0.05 1.47 1.42 96 1012.5
20260504193600 52 259 0.0 1.0 0.06 1.47 1.42 96 1012.4
20260504192734 52 259 0.0 0.0 0.06 1.47 1.42 96 1012.3
20260504192234 52 299 0.0 0.0 0.06 1.47 1.42 96 1012.1
20260504191738 52 299 0.0 0.0 0.07 1.47 1.42 96 1012.1
20260504191233 52 299 0.0 1.0 0.06 1.46 1.41 96 1012.0
20260504190740 52 299 0.0 1.0 0.06 1.47 1.41 96 1011.8
20260504190232 52 298 0.0 1.0 0.06 1.46 1.40 96 1011.8
20260504185734 52 298 0.0 1.0 0.06 1.46 1.39 96 1011.5
20260504185236 52 299 0.0 2.0 0.06 1.45 1.39 96 1011.3
20260504184732 52 299 1.0 2.0 0.08 1.45 1.39 96 1011.3
20260504184234 52 307 0.0 2.0 0.09 1.44 1.38 96 1011.2
20260504184040 52 288 0.0 2.0 0.11 1.43 1.37 96 1011.3
20260504183235 52 269 0.0 3.0 0.11 1.43 1.37 96 1011.5
20260504183046 52 290 0.0 3.0 0.13 1.43 1.36 95 1011.6
20260504182234 52 283 0.0 4.0 0.13 1.42 1.35 95 1011.8
20260504181732 52 341 1.0 4.0 0.14 1.41 1.35 95 1011.8
20260504181235 52 307 0.0 6.0 0.18 1.41 1.35 95 1011.9
20260504180733 52 268 2.0 6.0 0.25 1.41 1.35 95 1011.8
20260504180547 52 314 1.0 5.0 0.31 1.40 1.34 95 1011.8